Content
SEND FEEDBACK

Daily
Averages
Monthly
Summary
United States of America

SOUTHPORT, NORTH CAROLINA


Home > North America > United States > North Carolina
Elevation: 38 feet     Latitude: 34 00N     Longitude: 078 01W

WEATHER
 
SELECT A DAY
Number of Records: 136,373;   Date Range: 8/21/01 - 7/26/14
 
SHARE

PRINT THIS DATA

[ ← Previous Day ]
WEATHER ALMANAC - DECEMBER 7, 2013
[ Next Day → ]
[ °C ]   °F
Weather ElementAverageHighLow
Temperature55.5 °F68 °F (10:15 am)43.7 °F (11:35 pm)
Dewpoint53.9 °F64.8 °F (2:55 am)41.9 °F (11:35 pm)
Humidity94.1 %98 % (1:35 am)84 % (10:15 am)
Barometer30.23 in30.39 in (10:55 pm)30.11 in (12:55 am)
Wind Speed9.1 mph16.1 mph (12:55 pm)
Wind Gust21.9 mph (12:55 pm)
Weather ElementAverage
Visibility7 mi
Wind DirectionSE (133.2 °)

Weather ElementTotal
Precipitation0.11 in
Heating Degree Days9.2 (Base 65)
Growing Degree Days5.9 (Base 50)
Averaged from 71 records on December 7, 2013
WEATHER CONDITIONS BREAKOUT
WIND DIRECTION BREAKOUT
WEATHER BY HOUR - DECEMBER 7, 2013
[ °C ]   °F
Local TimeTemperatureDewpointHumidityBarometerVisibilityWind DirectionWind SpeedGust SpeedPrecipitationEventsConditions
12:35 AM65.3 °F64.4 °F97 %30.12 in7.0 miSSW (200°)8.1 mphClear
12:55 AM65.5 °F64.6 °F97 %30.11 in7.0 miSSW (200°)6.9 mphClear
1:15 AM65.5 °F64.6 °F97 %30.11 in7.0 miSSW (200°)8.1 mphClear
1:35 AM65.3 °F64.6 °F98 %30.11 in5.0 miSSW (210°)8.1 mphScattered Clouds
1:55 AM65.3 °F64.6 °F98 %30.11 in4.0 miSSW (210°)6.9 mphOvercast
2:15 AM65.3 °F64.6 °F98 %30.11 in1.2 miSSW (210°)8.1 mphOvercast
2:35 AM64.9 °F64.4 °F98 %30.11 in0.5 miSSW (200°)5.8 mphFogFog
2:55 AM65.3 °F64.8 °F98 %30.11 in0.5 miSSW (210°)8.1 mphFogFog
3:15 AM65.1 °F64.6 °F98 %30.11 in0.8 miSW (230°)6.9 mphOvercast
3:35 AM64.4 °F63.9 °F98 %30.12 in1.5 miSW (230°)6.9 mphOvercast
3:55 AM64.0 °F63.5 °F98 %30.11 in1.2 miSW (230°)6.9 mphOvercast
4:15 AM63.7 °F63.1 °F98 %30.12 in1.0 miWSW (240°)6.9 mphOvercast
4:35 AM63.5 °F63.0 °F98 %30.11 in2.5 miWSW (240°)6.9 mphOvercast
4:55 AM63.7 °F63.1 °F98 %30.12 in2.0 miWSW (240°)8.1 mphOvercast
5:15 AM63.5 °F63.0 °F98 %30.12 in3.0 miSW (230°)10.4 mphOvercast
5:35 AM63.0 °F62.4 °F98 %30.12 in4.0 miSW (220°)6.9 mphOvercast
5:55 AM62.6 °F61.9 °F97 %30.12 in5.0 miSW (220°)6.9 mphMostly Cloudy
6:15 AM61.9 °F61.3 °F98 %30.13 in5.0 miSW (230°)6.9 mphScattered Clouds
6:35 AM61.9 °F61.2 °F97 %30.13 in5.0 miSW (230°)6.9 mphClear
6:55 AM61.9 °F61.2 °F97 %30.13 in7.0 miSW (230°)8.1 mphClear
7:15 AM61.9 °F61.2 °F97 %30.14 in5.0 miSW (230°)8.1 mphClear
7:35 AM61.9 °F61.0 °F97 %30.14 in5.0 miSW (230°)5.8 mphClear
7:55 AM61.9 °F60.8 °F96 %30.15 in5.0 miSW (230°)6.9 mphClear
8:15 AM62.6 °F61.2 °F95 %30.16 in7.0 miWSW (240°)6.9 mphClear
8:35 AM63.5 °F61.5 °F93 %30.17 in7.0 miWSW (240°)5.8 mphMostly Cloudy
8:55 AM64.4 °F61.7 °F91 %30.17 in7.0 miWSW (240°)6.9 mphScattered Clouds
9:15 AM65.3 °F62.1 °F89 %30.17 in10.0 miWSW (240°)6.9 mphMostly Cloudy
9:35 AM65.3 °F62.4 °F90 %30.19 in10.0 miWest (260°)8.1 mphOvercast
9:55 AM67.1 °F62.8 °F86 %30.19 in10.0 miWSW (250°)10.4 mphOvercast
10:15 AM68.0 °F63.0 °F84 %30.19 in10.0 miWest (260°)11.5 mphOvercast
10:35 AM67.1 °F62.8 °F86 %30.20 in10.0 miWSW (250°)8.1 mphOvercast
10:55 AM66.2 °F62.2 °F87 %30.20 in10.0 miWSW (250°)8.1 mphOvercast
11:15 AM65.5 °F61.9 °F88 %30.20 in10.0 miWSW (250°)5.8 mphOvercast
11:35 AM63.3 °F59.7 °F88 %30.21 in10.0 miNNW (340°)13.8 mphOvercast
11:55 AM56.5 °F54.0 °F91 %30.23 in10.0 miNorth (360°)13.8 mph17.3 mphOvercast
12:15 PM54.5 °F51.8 °F91 %30.23 in10.0 miNorth (360°)13.8 mph20.7 mphOvercast
12:35 PM53.2 °F50.5 °F91 %30.22 in10.0 miNNE (30°)11.5 mph17.3 mphOvercast
12:55 PM52.5 °F48.9 °F88 %30.22 in10.0 miNorth (10°)16.1 mph21.9 mphOvercast
1:15 PM52.0 °F48.7 °F89 %30.23 in10.0 miNorth (10°)13.8 mph18.4 mphOvercast
1:35 PM51.4 °F48.9 °F91 %30.22 in7.0 miNNE (20°)11.5 mph16.1 mphOvercast
1:55 PM51.3 °F48.7 °F91 %30.23 in7.0 miNorth (10°)15.0 mphOvercast
2:15 PM50.5 °F48.7 °F94 %30.23 in4.0 miNorth (10°)11.5 mphRainRain
2:35 PM49.5 °F47.8 °F94 %30.23 in5.0 miNNE (30°)10.4 mph20.7 mphRainRain
2:55 PM49.5 °F48.0 °F95 %30.25 in10.0 miNNE (20°)12.7 mph17.3 mphRainRain
3:15 PM49.1 °F47.7 °F95 %30.25 in5.0 miNNE (20°)10.4 mphRainRain
3:35 PM48.6 °F47.3 °F95 %30.26 in5.0 miNNE (20°)9.2 mphLight Drizzle
3:55 PM48.2 °F46.6 °F94 %30.26 in4.0 miNNE (20°)11.5 mph0.01 inDrizzle
4:15 PM48.0 °F46.6 °F95 %30.28 in10.0 miNorth (10°)10.4 mphOvercast
4:35 PM47.7 °F46.4 °F95 %30.29 in10.0 miNNE (20°)8.1 mphLight Drizzle
4:55 PM47.3 °F45.9 °F95 %30.29 in10.0 miNNE (20°)6.9 mphOvercast
5:15 PM47.3 °F45.7 °F94 %30.30 in10.0 miNNE (20°)8.1 mphOvercast
5:35 PM46.8 °F45.1 °F94 %30.31 in10.0 miNNE (30°)8.1 mphOvercast
5:55 PM46.6 °F45.0 °F94 %30.31 in10.0 miNNE (30°)8.1 mphOvercast
6:15 PM46.4 °F44.8 °F94 %30.32 in10.0 miNNE (30°)10.4 mph17.3 mphOvercast
6:35 PM46.0 °F44.1 °F93 %30.33 in10.0 miNNE (20°)9.2 mphOvercast
6:55 PM46.0 °F44.1 °F93 %30.33 in10.0 miNNE (30°)9.2 mphOvercast
7:15 PM46.0 °F44.2 °F93 %30.35 in10.0 miNNE (20°)11.5 mphOvercast
7:35 PM45.9 °F44.1 °F93 %30.35 in7.0 miNNE (20°)12.7 mph16.1 mphOvercast
7:55 PM45.5 °F44.1 °F95 %30.35 in4.0 miNNE (20°)9.2 mph17.3 mphOvercast
8:15 PM45.0 °F43.7 °F95 %30.36 in5.0 miNNE (30°)10.4 mphOvercast
8:35 PM45.1 °F43.7 °F95 %30.36 in7.0 miNNE (30°)8.1 mph17.3 mphOvercast
8:55 PM44.8 °F43.7 °F96 %30.37 in5.0 miNNE (30°)8.1 mphRainLight Rain
9:15 PM44.6 °F43.2 °F95 %30.38 in7.0 miNNE (20°)10.4 mph17.3 mph0.02 inRainRain
9:35 PM44.4 °F43.0 °F95 %30.38 in7.0 miNNE (20°)9.2 mph0.04 inDrizzle
9:55 PM44.2 °F42.8 °F95 %30.37 in10.0 miNE (50°)10.4 mph18.4 mph0.04 inOvercast
10:15 PM44.2 °F42.8 °F95 %30.38 in10.0 miNE (40°)10.4 mph16.1 mphOvercast
10:35 PM44.2 °F42.8 °F95 %30.38 in10.0 miNNE (20°)9.2 mph16.1 mphOvercast
10:55 PM44.1 °F42.4 °F94 %30.39 in10.0 miNNE (20°)9.2 mphOvercast
11:15 PM44.1 °F42.4 °F94 %30.39 in10.0 miNNE (30°)10.4 mph16.1 mphOvercast
11:35 PM43.7 °F41.9 °F93 %30.39 in10.0 miNNE (30°)10.4 mphOvercast
11:55 PM43.7 °F41.9 °F93 %30.37 in10.0 miNNE (30°)8.1 mph16.1 mphOvercast
Hourly data recorded from KSUT, located miles away from Southport, North Carolina







STORIES FROM OUR PARTNERS